Time,TemperatureF,DewpointF,PressureIn,WindDirection,WindDirectionDegrees,WindSpeedMPH,WindSpeedGustMPH,Humidity,HourlyPrecipIn,Conditions,Clouds,dailyrainin,SoftwareType,DateUTC
2013-09-15 00:01:00,53.6,43.3,29.65,NW,316,8.3,8.3,68,0.00,,---,0.00,VWS V13.00,2013-09-15 08:01:00,
2013-09-15 00:06:00,53.6,43.3,29.65,ESE,110,0.0,8.3,68,0.00,,---,0.00,VWS V13.00,2013-09-15 08:06:00,
2013-09-15 00:11:00,53.6,43.3,29.65,SSW,195,0.0,8.3,68,0.00,,---,0.00,VWS V13.00,2013-09-15 08:11:00,
2013-09-15 00:16:00,53.6,43.3,29.65,North,8,0.0,8.3,68,0.00,,---,0.00,VWS V13.00,2013-09-15 08:16:00,
2013-09-15 00:21:00,53.6,42.9,29.65,West,267,0.0,0.0,67,0.00,,---,0.00,VWS V13.00,2013-09-15 08:21:00,
2013-09-15 00:26:00,53.6,42.9,29.65,South,182,0.0,0.0,67,0.00,,---,0.00,VWS V13.00,2013-09-15 08:26:00,
2013-09-15 00:31:00,53.6,42.9,29.65,South,182,0.0,0.0,67,0.00,,---,0.00,VWS V13.00,2013-09-15 08:31:00,
2013-09-15 00:36:00,53.6,42.9,29.65,South,176,0.0,0.0,67,0.00,,---,0.00,VWS V13.00,2013-09-15 08:36:00,
2013-09-15 00:40:00,53.6,42.9,29.65,ESE,102,0.0,0.0,67,0.00,,---,0.00,VWS V13.00,2013-09-15 08:40:00,
2013-09-15 00:45:00,53.1,42.0,29.65,NNW,340,0.0,0.0,66,0.00,,---,0.00,VWS V13.00,2013-09-15 08:45:00,
2013-09-15 00:50:00,52.9,41.8,29.65,SE,138,0.0,0.0,66,0.00,,---,0.00,VWS V13.00,2013-09-15 08:50:00,
2013-09-15 00:55:00,52.9,41.8,29.65,ESE,119,0.0,0.0,66,0.00,,---,0.00,VWS V13.00,2013-09-15 08:55:00,
2013-09-15 01:00:00,52.9,41.8,29.65,East,96,0.0,0.0,66,0.00,,---,0.00,VWS V13.00,2013-09-15 09:00:00,
2013-09-15 01:05:00,52.9,41.8,29.65,NNE,33,0.0,0.0,66,0.00,,---,0.00,VWS V13.00,2013-09-15 09:05:00,
2013-09-15 01:10:00,53.1,42.0,29.65,NE,36,0.0,0.0,66,0.00,,---,0.00,VWS V13.00,2013-09-15 09:10:00,
2013-09-15 01:15:00,53.1,42.0,29.65,ESE,120,5.8,5.8,66,0.00,,---,0.00,VWS V13.00,2013-09-15 09:15:00,
2013-09-15 01:20:00,53.1,42.0,29.65,SE,146,0.0,0.0,66,0.00,,---,0.00,VWS V13.00,2013-09-15 09:20:00,
2013-09-15 01:25:00,53.1,42.0,29.65,SE,143,0.0,0.0,66,0.00,,---,0.00,VWS V13.00,2013-09-15 09:25:00,
2013-09-15 01:30:00,53.1,42.0,29.65,SSE,158,0.0,3.1,66,0.00,,---,0.00,VWS V13.00,2013-09-15 09:30:00,
2013-09-15 01:35:00,53.8,42.7,29.65,SW,228,0.0,3.1,66,0.00,,---,0.00,VWS V13.00,2013-09-15 09:35:00,
2013-09-15 01:40:00,53.8,42.3,29.65,SE,136,7.6,7.6,65,0.00,,---,0.00,VWS V13.00,2013-09-15 09:40:00,
2013-09-15 01:45:00,53.8,42.3,29.65,SE,126,0.0,7.6,65,0.00,,---,0.00,VWS V13.00,2013-09-15 09:45:00,
2013-09-15 01:50:00,53.8,42.3,29.65,NW,312,0.0,7.6,65,0.00,,---,0.00,VWS V13.00,2013-09-15 09:50:00,
2013-09-15 01:55:00,54.5,41.3,29.65,SSE,162,5.8,7.6,61,0.00,,---,0.00,VWS V13.00,2013-09-15 09:55:00,
2013-09-15 02:00:00,54.5,40.9,29.65,SE,137,0.0,0.0,60,0.00,,---,0.00,VWS V13.00,2013-09-15 10:00:00,
2013-09-15 02:05:00,54.5,40.9,29.65,SE,139,0.0,3.6,60,0.00,,---,0.00,VWS V13.00,2013-09-15 10:05:00,
2013-09-15 02:10:00,54.5,40.9,29.65,SSE,163,0.0,4.9,60,0.00,,---,0.00,VWS V13.00,2013-09-15 10:10:00,
2013-09-15 02:15:00,54.5,40.5,29.65,SSE,163,0.0,4.9,59,0.00,,---,0.00,VWS V13.00,2013-09-15 10:15:00,
2013-09-15 02:20:00,54.5,40.5,29.65,ESE,108,0.0,0.0,59,0.00,,---,0.00,VWS V13.00,2013-09-15 10:20:00,
2013-09-15 02:25:00,54.5,40.5,29.65,East,86,0.0,0.0,59,0.00,,---,0.00,VWS V13.00,2013-09-15 10:25:00,
2013-09-15 02:30:00,54.5,40.5,29.65,NE,46,0.0,0.0,59,0.00,,---,0.00,VWS V13.00,2013-09-15 10:30:00,
2013-09-15 02:35:00,54.5,40.5,29.65,ENE,58,2.7,2.7,59,0.00,,---,0.00,VWS V13.00,2013-09-15 10:35:00,
2013-09-15 02:40:00,54.0,40.8,29.65,NNE,31,0.0,0.0,61,0.00,,---,0.00,VWS V13.00,2013-09-15 10:40:00,
2013-09-15 02:45:00,53.8,41.1,29.65,North,6,6.3,6.3,62,0.00,,---,0.00,VWS V13.00,2013-09-15 10:45:00,
2013-09-15 02:50:00,53.6,41.3,29.65,NE,36,0.0,6.3,63,0.00,,---,0.00,VWS V13.00,2013-09-15 10:50:00,
2013-09-15 02:55:00,53.6,41.3,29.65,NE,34,0.0,6.3,63,0.00,,---,0.00,VWS V13.00,2013-09-15 10:55:00,
2013-09-15 03:00:00,53.6,41.3,29.65,NE,52,0.0,0.0,63,0.00,,---,0.00,VWS V13.00,2013-09-15 11:00:00,
2013-09-15 03:05:00,52.7,42.1,29.65,NNE,18,0.0,0.0,67,0.00,,---,0.00,VWS V13.00,2013-09-15 11:05:00,
2013-09-15 03:10:00,52.9,42.6,29.65,NE,35,0.0,5.8,68,0.00,,---,0.00,VWS V13.00,2013-09-15 11:10:00,
2013-09-15 03:15:00,52.9,42.6,29.65,NNE,17,0.0,5.8,68,0.00,,---,0.00,VWS V13.00,2013-09-15 11:15:00,
2013-09-15 03:20:00,52.9,42.6,29.65,NE,36,0.0,0.0,68,0.00,,---,0.00,VWS V13.00,2013-09-15 11:20:00,
2013-09-15 03:25:00,52.9,42.6,29.65,East,82,0.0,0.0,68,0.00,,---,0.00,VWS V13.00,2013-09-15 11:25:00,
2013-09-15 03:30:00,52.5,42.3,29.65,East,84,0.0,0.0,68,0.00,,---,0.00,VWS V13.00,2013-09-15 11:30:00,
2013-09-15 03:35:00,52.2,41.9,29.65,East,99,0.0,0.0,68,0.00,,---,0.00,VWS V13.00,2013-09-15 11:35:00,
2013-09-15 03:40:00,52.2,41.9,29.65,East,83,0.0,0.0,68,0.00,,---,0.00,VWS V13.00,2013-09-15 11:40:00,
2013-09-15 03:45:00,52.2,41.9,29.65,East,98,0.0,0.0,68,0.00,,---,0.00,VWS V13.00,2013-09-15 11:45:00,
2013-09-15 03:50:00,51.6,42.2,29.65,East,98,0.0,0.0,70,0.00,,---,0.00,VWS V13.00,2013-09-15 11:50:00,
2013-09-15 03:55:00,51.4,41.6,29.65,East,98,0.0,0.0,69,0.00,,---,0.00,VWS V13.00,2013-09-15 11:55:00,
2013-09-15 04:00:00,51.4,41.6,29.65,NNW,338,0.0,0.0,69,0.00,,---,0.00,VWS V13.00,2013-09-15 12:00:00,
2013-09-15 04:05:00,51.4,41.6,29.65,NNE,30,0.0,0.0,69,0.00,,---,0.00,VWS V13.00,2013-09-15 12:05:00,
2013-09-15 04:10:00,51.4,41.6,29.65,NE,35,0.0,0.0,69,0.00,,---,0.00,VWS V13.00,2013-09-15 12:10:00,
2013-09-15 04:15:00,50.0,41.0,29.65,NNE,32,0.0,0.0,71,0.00,,---,0.00,VWS V13.00,2013-09-15 12:15:00,
2013-09-15 04:20:00,49.8,40.8,29.65,East,89,0.0,0.0,71,0.00,,---,0.00,VWS V13.00,2013-09-15 12:20:00,
2013-09-15 04:25:00,49.8,40.8,29.65,East,89,0.0,0.0,71,0.00,,---,0.00,VWS V13.00,2013-09-15 12:25:00,
2013-09-15 04:30:00,49.8,40.8,29.65,NE,49,0.0,0.0,71,0.00,,---,0.00,VWS V13.00,2013-09-15 12:30:00,
2013-09-15 04:35:00,49.8,40.8,29.65,East,88,0.0,0.0,71,0.00,,---,0.00,VWS V13.00,2013-09-15 12:35:00,
2013-09-15 04:40:00,48.9,40.3,29.65,East,88,0.0,0.0,72,0.00,,---,0.00,VWS V13.00,2013-09-15 12:40:00,
2013-09-15 04:45:00,48.9,40.7,29.65,East,88,0.0,0.0,73,0.00,,---,0.00,VWS V13.00,2013-09-15 12:45:00,
2013-09-15 04:50:00,48.9,40.7,29.65,East,88,0.0,0.0,73,0.00,,---,0.00,VWS V13.00,2013-09-15 12:50:00,
2013-09-15 04:55:00,48.9,40.7,29.65,East,88,0.0,0.0,73,0.00,,---,0.00,VWS V13.00,2013-09-15 12:55:00,
2013-09-15 05:00:00,48.9,40.7,29.65,East,88,0.0,0.0,73,0.00,,---,0.00,VWS V13.00,2013-09-15 13:00:00,
2013-09-15 05:05:00,48.4,40.5,29.65,East,88,0.0,0.0,74,0.00,,---,0.00,VWS V13.00,2013-09-15 13:05:00,
2013-09-15 05:10:00,48.4,40.5,29.65,East,88,0.0,0.0,74,0.00,,---,0.00,VWS V13.00,2013-09-15 13:10:00,
2013-09-15 05:15:00,48.4,40.5,29.65,East,88,0.0,0.0,74,0.00,,---,0.00,VWS V13.00,2013-09-15 13:15:00,
2013-09-15 05:20:00,48.4,40.5,29.65,East,88,0.0,0.0,74,0.00,,---,0.00,VWS V13.00,2013-09-15 13:20:00,
2013-09-15 05:25:00,48.4,40.5,29.65,East,88,0.0,0.0,74,0.00,,---,0.00,VWS V13.00,2013-09-15 13:25:00,
2013-09-15 05:30:00,48.0,40.5,29.65,East,88,0.0,0.0,75,0.00,,---,0.00,VWS V13.00,2013-09-15 13:30:00,
2013-09-15 05:35:00,47.8,40.3,29.65,East,88,0.0,0.0,75,0.00,,---,0.00,VWS V13.00,2013-09-15 13:35:00,
2013-09-15 05:40:00,47.8,40.3,29.65,East,88,0.0,0.0,75,0.00,,---,0.00,VWS V13.00,2013-09-15 13:40:00,
2013-09-15 05:45:00,47.8,40.3,29.65,East,88,0.0,0.0,75,0.00,,---,0.00,VWS V13.00,2013-09-15 13:45:00,
2013-09-15 05:50:00,47.3,40.1,29.65,East,88,0.0,0.0,76,0.00,,---,0.00,VWS V13.00,2013-09-15 13:50:00,
2013-09-15 05:55:00,47.3,40.1,29.65,East,88,0.0,0.0,76,0.00,,---,0.00,VWS V13.00,2013-09-15 13:55:00,
2013-09-15 06:00:00,47.3,40.1,29.65,East,88,0.0,0.0,76,0.00,,---,0.00,VWS V13.00,2013-09-15 14:00:00,
2013-09-15 06:05:00,47.3,40.1,29.62,East,88,0.0,0.0,76,0.00,,---,0.00,VWS V13.00,2013-09-15 14:05:00,
2013-09-15 06:10:00,47.3,40.1,29.62,East,88,0.0,0.0,76,0.00,,---,0.00,VWS V13.00,2013-09-15 14:10:00,
2013-09-15 06:15:00,47.7,41.2,29.62,NE,54,0.0,0.0,78,0.00,,---,0.00,VWS V13.00,2013-09-15 14:15:00,
2013-09-15 06:20:00,47.5,41.0,29.62,NE,54,0.0,0.0,78,0.00,,---,0.00,VWS V13.00,2013-09-15 14:20:00,
2013-09-15 06:25:00,47.5,41.0,29.62,NE,54,0.0,0.0,78,0.00,,---,0.00,VWS V13.00,2013-09-15 14:25:00,
2013-09-15 06:30:00,47.5,41.0,29.62,SE,129,0.0,0.0,78,0.00,,---,0.00,VWS V13.00,2013-09-15 14:30:00,
2013-09-15 06:35:00,47.5,41.0,29.62,SE,129,0.0,0.0,78,0.00,,---,0.00,VWS V13.00,2013-09-15 14:35:00,
2013-09-15 06:40:00,47.3,41.1,29.62,SE,129,0.0,0.0,79,0.00,,---,0.00,VWS V13.00,2013-09-15 14:40:00,
2013-09-15 06:45:00,47.1,41.0,29.62,ESE,106,3.6,3.6,79,0.00,,---,0.00,VWS V13.00,2013-09-15 14:45:00,
2013-09-15 06:50:00,47.1,41.0,29.62,SSE,148,0.0,3.6,79,0.00,,---,0.00,VWS V13.00,2013-09-15 14:50:00,
2013-09-15 06:55:00,47.1,41.0,29.62,NNE,23,0.0,3.6,79,0.00,,---,0.00,VWS V13.00,2013-09-15 14:55:00,
2013-09-15 07:00:00,47.1,41.3,29.62,SE,126,0.0,0.0,80,0.00,,---,0.00,VWS V13.00,2013-09-15 15:00:00,
2013-09-15 07:05:00,47.7,42.1,29.62,SSW,203,0.0,0.0,81,0.00,,---,0.00,VWS V13.00,2013-09-15 15:05:00,
2013-09-15 07:10:00,47.7,42.1,29.62,SE,127,0.0,6.3,81,0.00,,---,0.00,VWS V13.00,2013-09-15 15:10:00,
2013-09-15 07:15:00,47.7,42.1,29.62,SE,127,0.0,6.3,81,0.00,,---,0.00,VWS V13.00,2013-09-15 15:15:00,
2013-09-15 07:20:00,47.7,42.1,29.62,East,81,0.0,0.0,81,0.00,,---,0.00,VWS V13.00,2013-09-15 15:20:00,
2013-09-15 07:25:00,47.8,42.3,29.62,East,98,2.2,2.7,81,0.00,,---,0.00,VWS V13.00,2013-09-15 15:25:00,
2013-09-15 07:30:00,47.8,42.3,29.62,East,91,4.0,6.3,81,0.00,,---,0.00,VWS V13.00,2013-09-15 15:30:00,
2013-09-15 07:35:00,47.8,42.3,29.62,NNW,341,0.0,6.3,81,0.00,,---,0.00,VWS V13.00,2013-09-15 15:35:00,
2013-09-15 07:40:00,47.8,42.3,29.65,East,98,0.0,0.0,81,0.00,,---,0.00,VWS V13.00,2013-09-15 15:40:00,
2013-09-15 07:45:00,47.8,42.3,29.62,SE,130,0.0,0.0,81,0.00,,---,0.00,VWS V13.00,2013-09-15 15:45:00,
2013-09-15 07:50:00,48.7,42.9,29.62,East,96,3.1,3.1,80,0.00,,---,0.00,VWS V13.00,2013-09-15 15:50:00,
2013-09-15 07:55:00,48.6,42.7,29.62,East,97,0.0,3.1,80,0.00,,---,0.00,VWS V13.00,2013-09-15 15:55:00,
2013-09-15 08:00:00,48.6,42.7,29.62,East,100,0.0,0.0,80,0.00,,---,0.00,VWS V13.00,2013-09-15 16:00:00,
2013-09-15 08:05:00,48.9,43.0,29.62,SSE,161,0.0,2.2,80,0.00,,---,0.00,VWS V13.00,2013-09-15 16:05:00,
2013-09-15 08:10:00,48.9,43.0,29.62,SSE,158,0.0,2.7,80,0.00,,---,0.00,VWS V13.00,2013-09-15 16:10:00,
2013-09-15 08:15:00,49.8,42.9,29.62,WNW,296,0.0,2.7,77,0.00,,---,0.00,VWS V13.00,2013-09-15 16:15:00,
2013-09-15 08:20:00,50.0,42.4,29.62,SE,137,0.0,0.0,75,0.00,,---,0.00,VWS V13.00,2013-09-15 16:20:00,
2013-09-15 08:25:00,50.0,42.4,29.62,ENE,59,0.0,0.0,75,0.00,,---,0.00,VWS V13.00,2013-09-15 16:25:00,
2013-09-15 08:30:00,50.0,42.4,29.62,SE,133,8.1,8.1,75,0.00,,---,0.00,VWS V13.00,2013-09-15 16:30:00,
2013-09-15 08:35:00,50.0,42.4,29.62,NNE,24,4.0,8.1,75,0.00,,---,0.00,VWS V13.00,2013-09-15 16:35:00,
2013-09-15 08:40:00,51.8,37.1,29.62,ENE,69,7.2,7.2,57,0.00,,---,0.00,VWS V13.00,2013-09-15 16:40:00,
2013-09-15 08:45:00,51.8,37.1,29.62,South,170,2.7,7.2,57,0.00,,---,0.00,VWS V13.00,2013-09-15 16:45:00,
2013-09-15 08:50:00,51.8,37.1,29.62,NNE,30,0.0,7.2,57,0.00,,---,0.00,VWS V13.00,2013-09-15 16:50:00,
2013-09-15 08:55:00,51.8,37.1,29.62,NNE,20,3.6,7.2,57,0.00,,---,0.00,VWS V13.00,2013-09-15 16:55:00,
2013-09-15 09:00:00,52.5,35.9,29.62,NE,36,0.0,0.0,53,0.00,,---,0.00,VWS V13.00,2013-09-15 17:00:00,
2013-09-15 09:05:00,52.9,35.3,29.62,NNE,23,6.3,6.3,51,0.00,,---,0.00,VWS V13.00,2013-09-15 17:05:00,
2013-09-15 09:10:00,52.9,34.8,29.62,SSE,153,7.2,7.2,50,0.00,,---,0.00,VWS V13.00,2013-09-15 17:10:00,
2013-09-15 09:15:00,52.9,34.8,29.62,ESE,112,0.0,7.2,50,0.00,,---,0.00,VWS V13.00,2013-09-15 17:15:00,
2013-09-15 09:20:00,52.9,34.8,29.62,West,273,3.1,3.1,50,0.00,,---,0.00,VWS V13.00,2013-09-15 17:20:00,
2013-09-15 09:25:00,53.4,34.2,29.62,NNE,23,0.0,5.4,48,0.00,,---,0.00,VWS V13.00,2013-09-15 17:25:00,
2013-09-15 09:30:00,53.6,33.9,29.62,East,96,0.0,5.4,47,0.00,,---,0.00,VWS V13.00,2013-09-15 17:30:00,
2013-09-15 09:35:00,53.6,33.9,29.62,NNE,26,0.0,6.3,47,0.00,,---,0.00,VWS V13.00,2013-09-15 17:35:00,
2013-09-15 09:40:00,53.6,33.9,29.62,East,84,4.0,4.0,47,0.00,,---,0.00,VWS V13.00,2013-09-15 17:40:00,
2013-09-15 09:45:00,54.3,34.0,29.62,ENE,78,0.0,4.9,46,0.00,,---,0.00,VWS V13.00,2013-09-15 17:45:00,
2013-09-15 09:50:00,54.3,34.0,29.62,ESE,121,5.8,8.1,46,0.00,,---,0.00,VWS V13.00,2013-09-15 17:50:00,
2013-09-15 09:55:00,54.7,34.3,29.62,ENE,77,8.3,10.1,46,0.00,,---,0.00,VWS V13.00,2013-09-15 17:55:00,
2013-09-15 10:00:00,54.7,34.3,29.62,ESE,121,3.1,3.1,46,0.00,,---,0.00,VWS V13.00,2013-09-15 18:00:00,
2013-09-15 10:05:00,54.7,33.8,29.62,NNE,13,5.8,10.5,45,0.00,,---,0.00,VWS V13.00,2013-09-15 18:05:00,
2013-09-15 10:10:00,54.9,33.9,29.62,North,3,5.4,10.5,45,0.00,,---,0.00,VWS V13.00,2013-09-15 18:10:00,
2013-09-15 10:15:00,54.9,33.9,29.62,West,275,3.1,10.5,45,0.00,,---,0.00,VWS V13.00,2013-09-15 18:15:00,
2013-09-15 10:20:00,55.0,34.1,29.62,South,187,6.3,6.3,45,0.00,,---,0.00,VWS V13.00,2013-09-15 18:20:00,
2013-09-15 10:25:00,55.0,34.1,29.62,NNE,27,4.9,10.5,45,0.00,,---,0.00,VWS V13.00,2013-09-15 18:25:00,
2013-09-15 10:30:00,55.2,34.3,29.62,SE,137,8.1,10.5,45,0.00,,---,0.00,VWS V13.00,2013-09-15 18:30:00,
2013-09-15 10:35:00,55.4,33.9,29.62,East,95,6.3,10.5,44,0.00,,---,0.00,VWS V13.00,2013-09-15 18:35:00,
2013-09-15 10:40:00,55.6,34.6,29.62,WNW,284,0.0,2.2,45,0.00,,---,0.00,VWS V13.00,2013-09-15 18:40:00,
2013-09-15 10:45:00,55.4,33.9,29.62,ESE,120,3.6,8.3,44,0.00,,---,0.00,VWS V13.00,2013-09-15 18:45:00,
2013-09-15 10:50:00,55.4,33.9,29.62,SE,139,5.8,8.3,44,0.00,,---,0.00,VWS V13.00,2013-09-15 18:50:00,
2013-09-15 10:55:00,55.6,34.0,29.62,ESE,106,9.2,9.2,44,0.00,,---,0.00,VWS V13.00,2013-09-15 18:55:00,
2013-09-15 11:00:00,55.6,33.5,29.62,East,100,8.7,8.7,43,0.00,,---,0.00,VWS V13.00,2013-09-15 19:00:00,
2013-09-15 11:05:00,55.8,33.6,29.62,SE,140,6.3,8.7,43,0.00,,---,0.00,VWS V13.00,2013-09-15 19:05:00,
2013-09-15 11:10:00,55.9,33.8,29.62,NNW,335,6.3,8.7,43,0.00,,---,0.00,VWS V13.00,2013-09-15 19:10:00,
2013-09-15 11:15:00,56.1,33.4,29.62,SE,128,3.6,10.1,42,0.00,,---,0.00,VWS V13.00,2013-09-15 19:15:00,
2013-09-15 11:18:00,56.1,34.0,29.62,South,171,0.0,10.1,43,0.00,,---,0.00,VWS V13.00,2013-09-15 19:18:00,
2013-09-15 11:23:00,56.3,33.5,29.62,East,83,4.9,8.3,42,0.00,,---,0.00,VWS V13.00,2013-09-15 19:23:00,
2013-09-15 11:28:00,56.3,33.5,29.62,East,83,4.9,8.3,42,0.00,,---,0.00,VWS V13.00,2013-09-15 19:28:00,
2013-09-15 11:33:00,56.5,33.7,29.62,NE,48,2.2,8.3,42,0.00,,---,0.00,VWS V13.00,2013-09-15 19:33:00,
2013-09-15 11:38:00,56.5,33.7,29.62,East,88,0.0,8.3,42,0.00,,---,0.00,VWS V13.00,2013-09-15 19:38:00,
2013-09-15 11:43:00,56.7,33.8,29.62,East,95,0.0,6.7,42,0.00,,---,0.00,VWS V13.00,2013-09-15 19:43:00,
2013-09-15 11:48:00,56.8,33.4,29.62,ENE,66,0.0,6.7,41,0.00,,---,0.00,VWS V13.00,2013-09-15 19:48:00,
2013-09-15 11:53:00,57.0,33.6,29.62,ESE,106,4.0,6.7,41,0.00,,---,0.00,VWS V13.00,2013-09-15 19:53:00,
2013-09-15 11:58:00,57.2,33.7,29.62,WSW,254,0.0,6.7,41,0.00,,---,0.00,VWS V13.00,2013-09-15 19:58:00,
2013-09-15 12:03:00,57.4,33.3,29.62,SSE,158,0.0,0.0,40,0.00,,---,0.00,VWS V13.00,2013-09-15 20:03:00,
2013-09-15 12:08:00,57.4,33.9,29.62,South,182,4.9,7.2,41,0.00,,---,0.00,VWS V13.00,2013-09-15 20:08:00,
2013-09-15 12:13:00,57.6,33.4,29.62,East,100,4.0,8.7,40,0.00,,---,0.00,VWS V13.00,2013-09-15 20:13:00,
2013-09-15 12:18:00,57.7,33.0,29.62,ESE,106,4.5,8.7,39,0.00,,---,0.00,VWS V13.00,2013-09-15 20:18:00,
2013-09-15 12:23:00,57.9,33.1,29.62,ESE,111,5.8,5.8,39,0.00,,---,0.00,VWS V13.00,2013-09-15 20:23:00,
2013-09-15 12:28:00,58.1,33.3,29.62,East,90,0.0,8.7,39,0.00,,---,0.00,VWS V13.00,2013-09-15 20:28:00,
2013-09-15 12:33:00,58.1,33.3,29.62,ESE,103,10.1,10.1,39,0.00,,---,0.00,VWS V13.00,2013-09-15 20:33:00,
2013-09-15 12:38:00,58.3,32.8,29.62,SSE,162,2.7,10.5,38,0.00,,---,0.00,VWS V13.00,2013-09-15 20:38:00,
2013-09-15 12:43:00,58.5,33.0,29.62,SE,138,3.1,3.6,38,0.00,,---,0.00,VWS V13.00,2013-09-15 20:43:00,
2013-09-15 12:48:00,58.5,33.0,29.62,WNW,291,3.6,7.2,38,0.00,,---,0.00,VWS V13.00,2013-09-15 20:48:00,
2013-09-15 12:53:00,58.5,33.0,29.59,NNE,33,8.1,8.1,38,0.00,,---,0.00,VWS V13.00,2013-09-15 20:53:00,
2013-09-15 12:58:00,58.5,33.0,29.59,SE,124,8.1,10.1,38,0.00,,---,0.00,VWS V13.00,2013-09-15 20:58:00,
2013-09-15 13:02:00,58.6,33.1,29.59,East,81,10.5,10.5,38,0.00,,---,0.00,VWS V13.00,2013-09-15 21:02:00,
2013-09-15 13:07:00,58.6,33.1,29.59,East,91,5.4,10.5,38,0.00,,---,0.00,VWS V13.00,2013-09-15 21:07:00,
2013-09-15 13:12:00,58.6,33.1,29.59,SE,130,5.4,10.5,38,0.00,,---,0.00,VWS V13.00,2013-09-15 21:12:00,
2013-09-15 13:17:00,58.5,33.0,29.59,ESE,102,2.7,12.8,38,0.00,,---,0.00,VWS V13.00,2013-09-15 21:17:00,
2013-09-15 13:22:00,58.5,33.0,29.59,South,186,7.6,8.7,38,0.00,,---,0.00,VWS V13.00,2013-09-15 21:22:00,
2013-09-15 13:27:00,58.5,33.6,29.59,South,186,7.6,8.7,39,0.00,,---,0.00,VWS V13.00,2013-09-15 21:27:00,
2013-09-15 13:32:00,58.3,33.5,29.59,East,85,2.7,8.7,39,0.00,,---,0.00,VWS V13.00,2013-09-15 21:32:00,
2013-09-15 13:37:00,58.3,33.5,29.59,SE,146,5.4,10.1,39,0.00,,---,0.00,VWS V13.00,2013-09-15 21:37:00,
2013-09-15 13:42:00,59.0,32.8,29.59,East,99,5.8,8.7,37,0.00,,---,0.00,VWS V13.00,2013-09-15 21:42:00,
2013-09-15 13:47:00,59.0,32.8,29.59,East,99,5.8,8.7,37,0.00,,---,0.00,VWS V13.00,2013-09-15 21:47:00,
2013-09-15 13:52:00,59.0,32.8,29.59,SE,146,0.0,8.7,37,0.00,,---,0.00,VWS V13.00,2013-09-15 21:52:00,
2013-09-15 13:57:00,59.2,33.0,29.59,SSE,162,5.4,8.7,37,0.00,,---,0.00,VWS V13.00,2013-09-15 21:57:00,
2013-09-15 14:02:00,59.2,33.0,29.59,East,83,2.2,4.9,37,0.00,,---,0.00,VWS V13.00,2013-09-15 22:02:00,
2013-09-15 14:07:00,59.2,33.0,29.59,ESE,111,8.7,12.8,37,0.00,,---,0.00,VWS V13.00,2013-09-15 22:07:00,
2013-09-15 14:12:00,59.2,33.0,29.59,East,84,10.1,12.8,37,0.00,,---,0.00,VWS V13.00,2013-09-15 22:12:00,
2013-09-15 14:17:00,59.0,32.1,29.59,ENE,69,2.7,12.8,36,0.00,,---,0.00,VWS V13.00,2013-09-15 22:17:00,
2013-09-15 14:22:00,59.2,32.3,29.59,SSE,155,0.0,8.3,36,0.00,,---,0.00,VWS V13.00,2013-09-15 22:22:00,
2013-09-15 14:27:00,59.2,32.3,29.59,East,91,6.3,8.7,36,0.00,,---,0.00,VWS V13.00,2013-09-15 22:27:00,
2013-09-15 14:32:00,59.2,32.3,29.59,SE,124,8.7,8.7,36,0.00,,---,0.00,VWS V13.00,2013-09-15 22:32:00,
2013-09-15 14:37:00,59.4,32.4,29.59,SE,128,4.0,8.7,36,0.00,,---,0.00,VWS V13.00,2013-09-15 22:37:00,
2013-09-15 14:42:00,59.4,32.4,29.59,SSE,159,6.3,8.1,36,0.00,,---,0.00,VWS V13.00,2013-09-15 22:42:00,
2013-09-15 14:47:00,59.4,32.4,29.59,North,357,0.0,8.3,36,0.00,,---,0.00,VWS V13.00,2013-09-15 22:47:00,
2013-09-15 14:52:00,59.4,31.7,29.59,ESE,120,6.3,8.3,35,0.00,,---,0.00,VWS V13.00,2013-09-15 22:52:00,
2013-09-15 14:57:00,59.4,31.7,29.59,SSE,153,6.7,8.3,35,0.00,,---,0.00,VWS V13.00,2013-09-15 22:57:00,
2013-09-15 15:02:00,59.2,31.6,29.59,North,6,3.6,6.7,35,0.00,,---,0.00,VWS V13.00,2013-09-15 23:02:00,
2013-09-15 15:07:00,59.0,31.4,29.59,ESE,114,5.4,10.5,35,0.00,,---,0.00,VWS V13.00,2013-09-15 23:07:00,
2013-09-15 15:12:00,59.0,31.4,29.59,East,85,6.3,10.5,35,0.00,,---,0.00,VWS V13.00,2013-09-15 23:12:00,
2013-09-15 15:17:00,58.8,32.0,29.59,North,6,5.8,15.4,36,0.00,,---,0.00,VWS V13.00,2013-09-15 23:17:00,
2013-09-15 15:22:00,58.8,32.0,29.59,East,98,5.8,5.8,36,0.00,,---,0.00,VWS V13.00,2013-09-15 23:22:00,
2013-09-15 15:27:00,59.0,31.4,29.59,SSE,149,5.4,5.8,35,0.00,,---,0.00,VWS V13.00,2013-09-15 23:27:00,
2013-09-15 15:32:00,59.0,31.4,29.59,SE,143,5.8,14.5,35,0.00,,---,0.00,VWS V13.00,2013-09-15 23:32:00,
2013-09-15 15:37:00,58.8,31.2,29.59,East,83,0.0,14.5,35,0.00,,---,0.00,VWS V13.00,2013-09-15 23:37:00,
2013-09-15 15:42:00,58.8,32.0,29.59,North,357,5.8,8.1,36,0.00,,---,0.00,VWS V13.00,2013-09-15 23:42:00,
2013-09-15 15:47:00,58.8,32.0,29.59,WNW,286,0.0,8.1,36,0.00,,---,0.00,VWS V13.00,2013-09-15 23:47:00,
2013-09-15 15:52:00,59.0,31.4,29.59,NNE,16,3.6,10.1,35,0.00,,---,0.00,VWS V13.00,2013-09-15 23:52:00,
2013-09-15 15:57:00,59.0,31.4,29.59,ENE,72,6.3,13.2,35,0.00,,---,0.00,VWS V13.00,2013-09-15 23:57:00,
2013-09-15 16:02:00,59.0,31.4,29.59,ESE,122,7.6,7.6,35,0.00,,---,0.00,VWS V13.00,2013-09-16 00:02:00,
2013-09-15 16:07:00,59.2,31.6,29.59,NE,41,5.8,7.6,35,0.00,,---,0.00,VWS V13.00,2013-09-16 00:07:00,
2013-09-15 16:12:00,59.2,31.6,29.59,ESE,103,4.0,8.3,35,0.00,,---,0.00,VWS V13.00,2013-09-16 00:12:00,
2013-09-15 16:17:00,59.4,31.7,29.59,NW,306,0.0,8.7,35,0.00,,---,0.00,VWS V13.00,2013-09-16 00:17:00,
2013-09-15 16:22:00,59.4,31.7,29.56,NNW,327,5.4,7.6,35,0.00,,---,0.00,VWS V13.00,2013-09-16 00:22:00,
2013-09-15 16:27:00,59.2,31.6,29.56,SE,133,7.6,9.6,35,0.00,,---,0.00,VWS V13.00,2013-09-16 00:27:00,
2013-09-15 16:32:00,59.2,31.6,29.56,ESE,108,4.9,9.6,35,0.00,,---,0.00,VWS V13.00,2013-09-16 00:32:00,
2013-09-15 16:37:00,59.2,31.6,29.56,SE,138,0.0,9.6,35,0.00,,---,0.00,VWS V13.00,2013-09-16 00:37:00,
2013-09-15 16:42:00,59.2,31.6,29.56,SE,124,2.7,4.0,35,0.00,,---,0.00,VWS V13.00,2013-09-16 00:42:00,
2013-09-15 16:47:00,59.2,31.6,29.56,NNE,26,5.8,5.8,35,0.00,,---,0.00,VWS V13.00,2013-09-16 00:47:00,
2013-09-15 16:52:00,59.2,31.6,29.56,SE,127,5.8,5.8,35,0.00,,---,0.00,VWS V13.00,2013-09-16 00:52:00,
2013-09-15 16:57:00,59.2,31.6,29.56,East,82,6.3,6.3,35,0.00,,---,0.00,VWS V13.00,2013-09-16 00:57:00,
2013-09-15 17:02:00,59.2,31.6,29.56,NNE,17,8.7,8.7,35,0.00,,---,0.00,VWS V13.00,2013-09-16 01:02:00,
2013-09-15 17:07:00,59.2,31.6,29.56,ESE,123,0.0,8.7,35,0.00,,---,0.00,VWS V13.00,2013-09-16 01:07:00,
2013-09-15 17:12:00,59.5,31.9,29.56,SE,125,0.0,8.7,35,0.00,,---,0.00,VWS V13.00,2013-09-16 01:12:00,
2013-09-15 17:17:00,59.9,32.2,29.56,East,84,2.7,8.7,35,0.00,,---,0.00,VWS V13.00,2013-09-16 01:17:00,
2013-09-15 17:22:00,60.1,32.4,29.56,SSW,192,3.6,3.6,35,0.00,,---,0.00,VWS V13.00,2013-09-16 01:22:00,
2013-09-15 17:27:00,60.4,32.7,29.56,NW,309,0.0,3.6,35,0.00,,---,0.00,VWS V13.00,2013-09-16 01:27:00,
2013-09-15 17:32:00,61.2,33.3,29.56,East,93,0.0,4.0,35,0.00,,---,0.00,VWS V13.00,2013-09-16 01:32:00,
2013-09-15 17:37:00,61.7,33.1,29.56,SSW,207,0.0,6.3,34,0.00,,---,0.00,VWS V13.00,2013-09-16 01:37:00,
2013-09-15 17:42:00,61.9,33.2,29.56,West,267,4.5,4.5,34,0.00,,---,0.00,VWS V13.00,2013-09-16 01:42:00,
2013-09-15 17:47:00,61.9,33.2,29.56,South,174,10.1,10.1,34,0.00,,---,0.00,VWS V13.00,2013-09-16 01:47:00,
2013-09-15 17:52:00,61.9,33.2,29.56,East,101,5.4,12.3,34,0.00,,---,0.00,VWS V13.00,2013-09-16 01:52:00,
2013-09-15 17:57:00,61.7,33.1,29.56,SW,225,3.1,12.3,34,0.00,,---,0.00,VWS V13.00,2013-09-16 01:57:00,
2013-09-15 18:02:00,61.9,33.2,29.56,SSE,162,2.2,8.3,34,0.00,,---,0.00,VWS V13.00,2013-09-16 02:02:00,
2013-09-15 18:07:00,61.9,33.2,29.56,ENE,75,4.0,8.3,34,0.00,,---,0.00,VWS V13.00,2013-09-16 02:07:00,
2013-09-15 18:12:00,61.9,33.2,29.56,ESE,112,8.3,11.4,34,0.00,,---,0.00,VWS V13.00,2013-09-16 02:12:00,
2013-09-15 18:17:00,61.9,33.2,29.56,SSE,153,5.8,11.4,34,0.00,,---,0.00,VWS V13.00,2013-09-16 02:17:00,
2013-09-15 18:22:00,61.9,33.2,29.56,South,170,0.0,8.1,34,0.00,,---,0.00,VWS V13.00,2013-09-16 02:22:00,
2013-09-15 18:27:00,61.9,33.2,29.56,SSE,168,8.1,8.1,34,0.00,,---,0.00,VWS V13.00,2013-09-16 02:27:00,
2013-09-15 18:32:00,62.1,33.4,29.56,East,98,5.4,9.6,34,0.00,,---,0.00,VWS V13.00,2013-09-16 02:32:00,
2013-09-15 18:37:00,62.1,33.4,29.56,ESE,110,3.1,9.6,34,0.00,,---,0.00,VWS V13.00,2013-09-16 02:37:00,
2013-09-15 18:42:00,62.2,33.5,29.56,East,98,3.6,9.6,34,0.00,,---,0.00,VWS V13.00,2013-09-16 02:42:00,
2013-09-15 18:47:00,62.1,33.4,29.56,West,266,2.7,11.4,34,0.00,,---,0.00,VWS V13.00,2013-09-16 02:47:00,
2013-09-15 18:52:00,61.9,33.2,29.56,NNE,31,0.0,11.4,34,0.00,,---,0.00,VWS V13.00,2013-09-16 02:52:00,
2013-09-15 18:57:00,61.7,33.1,29.56,NNE,24,0.0,11.4,34,0.00,,---,0.00,VWS V13.00,2013-09-16 02:57:00,
2013-09-15 19:02:00,61.5,32.9,29.56,South,171,0.0,8.1,34,0.00,,---,0.00,VWS V13.00,2013-09-16 03:02:00,
2013-09-15 19:07:00,61.3,32.8,29.56,East,93,0.0,8.1,34,0.00,,---,0.00,VWS V13.00,2013-09-16 03:07:00,
2013-09-15 19:12:00,60.6,32.1,29.56,South,181,6.3,8.1,34,0.00,,---,0.00,VWS V13.00,2013-09-16 03:12:00,
2013-09-15 19:17:00,60.4,32.0,29.56,West,281,0.0,8.1,34,0.00,,---,0.00,VWS V13.00,2013-09-16 03:17:00,
2013-09-15 19:22:00,60.1,31.6,29.56,ENE,67,0.0,0.0,34,0.00,,---,0.00,VWS V13.00,2013-09-16 03:22:00,
2013-09-15 19:27:00,59.5,31.2,29.56,South,173,0.0,4.9,34,0.00,,---,0.00,VWS V13.00,2013-09-16 03:27:00,
2013-09-15 19:32:00,59.0,30.7,29.56,NE,43,8.7,8.7,34,0.00,,---,0.00,VWS V13.00,2013-09-16 03:32:00,
2013-09-15 19:37:00,58.5,30.9,29.56,South,173,0.0,8.7,35,0.00,,---,0.00,VWS V13.00,2013-09-16 03:37:00,
2013-09-15 19:42:00,58.3,30.8,29.56,SSE,157,0.0,0.0,35,0.00,,---,0.00,VWS V13.00,2013-09-16 03:42:00,
2013-09-15 19:47:00,58.1,30.6,29.56,SSW,212,0.0,0.0,35,0.00,,---,0.00,VWS V13.00,2013-09-16 03:47:00,
2013-09-15 19:52:00,57.9,30.5,29.56,East,99,8.7,10.5,35,0.00,,---,0.00,VWS V13.00,2013-09-16 03:52:00,
2013-09-15 19:57:00,57.7,30.3,29.56,SE,127,0.0,10.5,35,0.00,,---,0.00,VWS V13.00,2013-09-16 03:57:00,
2013-09-15 20:01:00,57.6,30.1,29.56,WSW,244,0.0,0.0,35,0.00,,---,0.00,VWS V13.00,2013-09-16 04:01:00,
2013-09-15 20:06:00,57.4,30.0,29.56,SSW,210,0.0,0.0,35,0.00,,---,0.00,VWS V13.00,2013-09-16 04:06:00,
2013-09-15 20:11:00,57.2,29.8,29.56,South,187,0.0,0.0,35,0.00,,---,0.00,VWS V13.00,2013-09-16 04:11:00,
2013-09-15 20:16:00,57.0,29.7,29.56,West,275,0.0,0.0,35,0.00,,---,0.00,VWS V13.00,2013-09-16 04:16:00,
2013-09-15 20:21:00,56.8,29.5,29.56,SSW,192,4.0,4.0,35,0.00,,---,0.00,VWS V13.00,2013-09-16 04:21:00,
2013-09-15 20:26:00,56.7,30.0,29.56,SW,229,0.0,4.5,36,0.00,,---,0.00,VWS V13.00,2013-09-16 04:26:00,
2013-09-15 20:31:00,56.5,29.9,29.56,South,179,5.4,5.8,36,0.00,,---,0.00,VWS V13.00,2013-09-16 04:31:00,
2013-09-15 20:36:00,56.5,29.9,29.56,East,95,3.1,5.8,36,0.00,,---,0.00,VWS V13.00,2013-09-16 04:36:00,
2013-09-15 20:41:00,56.5,29.9,29.56,South,173,0.0,4.5,36,0.00,,---,0.00,VWS V13.00,2013-09-16 04:41:00,
2013-09-15 20:46:00,56.1,29.5,29.56,WSW,248,5.4,5.4,36,0.00,,---,0.00,VWS V13.00,2013-09-16 04:46:00,
2013-09-15 20:51:00,56.1,29.5,29.56,SSE,159,0.0,7.6,36,0.00,,---,0.00,VWS V13.00,2013-09-16 04:51:00,
2013-09-15 20:56:00,56.1,29.5,29.56,SE,142,8.7,8.7,36,0.00,,---,0.00,VWS V13.00,2013-09-16 04:56:00,
2013-09-15 21:01:00,55.9,29.4,29.56,SE,135,0.0,3.6,36,0.00,,---,0.00,VWS V13.00,2013-09-16 05:01:00,
2013-09-15 21:06:00,55.9,29.4,29.56,ESE,104,0.0,5.4,36,0.00,,---,0.00,VWS V13.00,2013-09-16 05:06:00,
2013-09-15 21:11:00,56.1,29.5,29.56,South,179,0.0,7.2,36,0.00,,---,0.00,VWS V13.00,2013-09-16 05:11:00,
2013-09-15 21:16:00,55.8,29.2,29.56,SW,230,8.3,8.3,36,0.00,,---,0.00,VWS V13.00,2013-09-16 05:16:00,
2013-09-15 21:21:00,55.8,29.2,29.56,East,83,0.0,5.4,36,0.00,,---,0.00,VWS V13.00,2013-09-16 05:21:00,
2013-09-15 21:26:00,55.8,29.2,29.56,SE,134,0.0,8.3,36,0.00,,---,0.00,VWS V13.00,2013-09-16 05:26:00,
2013-09-15 21:31:00,55.6,29.1,29.56,South,186,0.0,8.3,36,0.00,,---,0.00,VWS V13.00,2013-09-16 05:31:00,
2013-09-15 21:36:00,55.4,28.9,29.56,SSW,209,4.0,8.3,36,0.00,,---,0.00,VWS V13.00,2013-09-16 05:36:00,
2013-09-15 21:41:00,55.6,29.1,29.56,NNW,342,0.0,8.1,36,0.00,,---,0.00,VWS V13.00,2013-09-16 05:41:00,
2013-09-15 21:46:00,55.6,29.1,29.56,SSE,165,3.1,8.1,36,0.00,,---,0.00,VWS V13.00,2013-09-16 05:46:00,
2013-09-15 21:51:00,55.6,29.1,29.56,NNE,26,11.0,12.3,36,0.00,,---,0.00,VWS V13.00,2013-09-16 05:51:00,
2013-09-15 21:56:00,55.6,29.1,29.56,South,176,5.4,12.3,36,0.00,,---,0.00,VWS V13.00,2013-09-16 05:56:00,
2013-09-15 22:01:00,55.4,28.9,29.56,East,96,0.0,0.0,36,0.00,,---,0.00,VWS V13.00,2013-09-16 06:01:00,
2013-09-15 22:06:00,55.4,28.9,29.56,ESE,103,2.7,2.7,36,0.00,,---,0.00,VWS V13.00,2013-09-16 06:06:00,
2013-09-15 22:11:00,55.2,28.8,29.56,SE,133,5.8,10.5,36,0.00,,---,0.00,VWS V13.00,2013-09-16 06:11:00,
2013-09-15 22:16:00,55.4,28.9,29.56,East,100,4.5,10.5,36,0.00,,---,0.00,VWS V13.00,2013-09-16 06:16:00,
2013-09-15 22:21:00,55.2,28.8,29.56,ESE,118,0.0,5.4,36,0.00,,---,0.00,VWS V13.00,2013-09-16 06:21:00,
2013-09-15 22:26:00,55.2,28.8,29.56,SSE,158,7.6,9.6,36,0.00,,---,0.00,VWS V13.00,2013-09-16 06:26:00,
2013-09-15 22:31:00,55.4,28.9,29.56,NE,49,4.0,9.6,36,0.00,,---,0.00,VWS V13.00,2013-09-16 06:31:00,
2013-09-15 22:36:00,55.2,28.8,29.56,South,173,0.0,10.5,36,0.00,,---,0.00,VWS V13.00,2013-09-16 06:36:00,
2013-09-15 22:41:00,55.2,28.8,29.56,SSW,199,0.0,2.7,36,0.00,,---,0.00,VWS V13.00,2013-09-16 06:41:00,
2013-09-15 22:46:00,54.9,28.4,29.56,East,84,3.6,7.6,36,0.00,,---,0.00,VWS V13.00,2013-09-16 06:46:00,
2013-09-15 22:51:00,55.0,29.3,29.56,ENE,74,4.5,7.6,37,0.00,,---,0.00,VWS V13.00,2013-09-16 06:51:00,
2013-09-15 22:56:00,55.0,28.6,29.56,SSE,154,0.0,7.6,36,0.00,,---,0.00,VWS V13.00,2013-09-16 06:56:00,
2013-09-15 23:01:00,55.4,28.9,29.56,East,98,0.0,0.0,36,0.00,,---,0.00,VWS V13.00,2013-09-16 07:01:00,
2013-09-15 23:06:00,55.4,28.9,29.56,East,93,5.8,8.7,36,0.00,,---,0.00,VWS V13.00,2013-09-16 07:06:00,
2013-09-15 23:11:00,55.2,28.8,29.56,East,95,0.0,8.7,36,0.00,,---,0.00,VWS V13.00,2013-09-16 07:11:00,
2013-09-15 23:16:00,55.0,28.6,29.56,SSE,153,6.3,8.7,36,0.00,,---,0.00,VWS V13.00,2013-09-16 07:16:00,
2013-09-15 23:21:00,55.2,28.8,29.56,SE,132,5.4,5.8,36,0.00,,---,0.00,VWS V13.00,2013-09-16 07:21:00,
2013-09-15 23:26:00,55.2,28.8,29.56,SE,143,4.5,7.6,36,0.00,,---,0.00,VWS V13.00,2013-09-16 07:26:00,
2013-09-15 23:31:00,55.2,28.8,29.53,SSE,151,6.3,11.0,36,0.00,,---,0.00,VWS V13.00,2013-09-16 07:31:00,
2013-09-15 23:36:00,55.2,28.8,29.53,ESE,106,8.3,11.0,36,0.00,,---,0.00,VWS V13.00,2013-09-16 07:36:00,
2013-09-15 23:41:00,55.4,28.9,29.53,SE,127,8.3,8.3,36,0.00,,---,0.00,VWS V13.00,2013-09-16 07:41:00,
2013-09-15 23:46:00,55.4,28.9,29.53,ESE,118,8.7,8.7,36,0.00,,---,0.00,VWS V13.00,2013-09-16 07:46:00,
2013-09-15 23:51:00,55.2,28.8,29.53,WSW,258,0.0,12.3,36,0.00,,---,0.00,VWS V13.00,2013-09-16 07:51:00,
2013-09-15 23:56:00,55.0,28.6,29.53,SSE,162,6.3,12.3,36,0.00,,---,0.00,VWS V13.00,2013-09-16 07:56:00,